2017 Labor Day 30K

Milford, MI
2017-09-02
Starts on: 2017-09-02
Where: Milford, MI
Categories: 30K Run 30K Bike 10K Run/Walk 6K Fun Run/Walk 1/2 Mile Kid's Fun Run
Female Masters 30K Run
name bib rank time pace hometown
Lisa Veneziano 144 1 02:21:03 07:35 Fenton, MI
Stephanie Smith 306 2 02:34:25 08:18 Howell, MI
Julie Cauvin 274 3 02:35:25 08:21 Brighton, MI
Trina Romanowski 119 4 02:35:50 08:22 Hudson, MI
Mami Kato 72 5 02:36:00 08:23 Birmingham, MI
Ellen van Wageningen 143 6 02:37:06 08:26 Windsor, --
Rebecca Dragan 40 7 02:37:52 08:29 Canton, MI
Tania Babister 10 8 02:38:23 08:30 Tecumseh, --
Karly Olson 242 9 02:39:34 08:34 Saline, MI
Meg Schulte 251 10 02:43:24 08:46 Bloomfield, MI
Julie Wojtaszek 263 11 02:43:31 08:47 Northville, MI
Tammy Bengela 294 12 02:45:07 08:52 Toledo, OH
Renee Champagne 279 13 02:46:22 08:56 Milford, MI
Deborah Schmidt 302 14 02:46:44 08:57 Sylvania, OH
Jessica Shehab 252 15 02:46:57 08:58 Northville Townsh, MI
Patti Rapp 113 16 02:47:05 08:58 Sylvania, OH
Bethellen Bastien 13 17 02:47:22 08:59 Amherstburg, --
Audrey Moore 241 18 02:48:48 09:04 Bingham Farms, MI
Michelle Alamo 5 19 02:48:57 09:04 Royal Oak, MI
Sue Filauro 211 20 02:49:54 09:07 Canton, MI
Wendy Gesund 51 21 02:51:23 09:12 Phoenix, AZ
Tracy Box 18 22 02:53:14 09:18 SEMMES, AL
Kimberlyn Fortino 48 23 02:54:44 09:23 CANTON, MI
Kelly Jewell 298 24 02:59:18 09:38 Lambertville, MI
Karen Price 109 25 03:00:22 09:41 rochester hills, MI
Rebecca Robinson 249 26 03:00:26 09:41 Lambertville, MI
Diane Mattson 237 27 03:03:40 09:52 Brighton, MI
Leigh Ball 11 28 03:04:11 09:53 BYRON CENTER, MI
denise dashner 31 29 03:04:17 09:54 Temperance, MI
Carole Hawke 57 30 03:05:12 09:57 DETROIT, MI
Sandra Charfoos 24 31 03:05:56 09:59 White Lake, MI
Marguerite Dillard 34 32 03:06:15 10:00 ANN ARBOR, MI
Kelly Carlson 193 33 03:07:56 10:05 Clarkston, MI
Kathryn Selva 128 34 03:09:46 10:11 Plymouth, MI
Sara Bowman 17 35 03:11:05 10:16 FARMINGTON, MI
Coreen Paul 103 36 03:11:05 10:16 SACRAMENTO, CA
Pamela Franklin 49 37 03:11:08 10:16 Flint, MI
Chandana Kathuria 300 38 03:11:51 10:18 Novi, MI
Melissa Condevaux 197 39 03:12:56 10:22 Livonia, MI
Jill Maggi 82 40 03:14:13 10:26 ORTONVILLE, MI
Janie Vitek 149 41 03:15:58 10:31 WIXOM, MI
Tina Applegate 175 42 03:18:27 10:39 Walled Lake, MI
Andrea Eisenberg 208 43 03:20:24 10:46 Bloomfield Hills, MI
Sharry Bronson 188 44 03:20:40 10:46 Madison Heights, MI
Diane Montgomery 90 45 03:22:02 10:51 LATHRUP VLG, MI
Shilpa Kolhatkar 77 46 03:26:04 11:04 NOVI, MI
Deanna Kennedy 228 47 03:27:04 11:07 Clarkston, MI
Shalini Gupta 54 48 03:28:52 11:13 NORTHVILLE, MI
Suzanne Kozloski 78 49 03:29:02 11:13 Grand Rapids, MI
Laura Wright 157 50 03:30:56 11:19 Toronto, --
Darlene Reimann 245 51 03:32:31 11:25 Troy, MI
Debbie Whitlock 262 52 03:32:56 11:26 Rochester, MI
Becky Boyd 19 53 03:32:57 11:26 Rochester, MI
Pamela Schroeder 126 54 03:32:57 11:26 Oxford, MI
Kerlyne Alexis-Pinkins 171 55 03:33:44 11:28 Detroit, MI
Cheryl Strange-Laetsch 138 56 03:34:28 11:31 Grass Lake, MI
Laurie White 261 57 03:35:34 11:34 Grand Blanc, MI
Sally Miller 89 58 03:37:17 11:40 Lapeer, MI
Dawn King 230 59 03:37:54 11:42 Southfield, MI
Kelly Prather 244 60 03:39:57 11:48 Southgate, MI
Kellie Moller 283 61 03:40:00 11:49 Clarkston, MI
Shannon Peitz 243 62 03:40:36 11:51 Clinton, MI
Carrie Karasiewicz 71 63 03:42:23 11:56 FERNDALE, MI
Tanya Holland 62 64 03:42:23 11:56 Royal Oak, MI
Theresa Chazick 25 65 03:42:26 11:56 Goodrich, MI
Jaye Quadrozzi 112 66 03:42:47 11:58 BEVERLY HILLS, MI
Lisa Mausolf 85 67 03:42:57 11:58 LAKE ORION, MI
Brenda Firestine 47 68 03:42:57 11:58 ROYAL OAK, MI
Susan Miller 239 69 03:43:08 11:59 Grand Rapids, MI
Mercy Alonzo-Williams 172 70 03:43:28 12:00 Novi, MI
Ann Chlebnik 196 71 03:44:30 12:03 Goodrich, MI
Karin Demuth 205 72 03:48:36 12:16 Farmington Hills, MI
Amy Corriere 198 73 03:55:27 12:38 Ann Arbor, MI
Kim Gottesman 221 74 04:00:33 12:55 Farmington Hills, MI
Beth Blanchard 15 75 04:00:35 12:55 Commerce Twp, MI
Wanda Yenkel 158 76 04:00:43 12:55 Commerce Township, MI
Dannille Riley 115 77 04:02:28 13:01 Ann Arbor, MI
Julma Castillo 23 78 04:11:31 13:30 WARREN, MI
Suzanne Mooney 91 79 04:12:27 13:33 WARREN, MI
Jacqueline Brown 20 80 04:19:15 13:55 Washington, MI
Latesha Stewart 257 81 04:30:29 14:31 Detroit, MI
Deborah Eskridge 209 82 04:30:36 14:32 Southgate, MI
April Maunu 280 83 04:38:14 14:56 Brighton, MI
Linda Baker 181 84 04:41:14 15:06 Hudson, MI